Back to catalog

STARLINK-2121

AliveCommunicationsVLEO
NORAD 47399·PAYLOAD·🇺🇸 United States

Launched Jan 20, 2021 from Cape Canaveral Space Force Station

Loading…

Next Passes (next 24 hours)

TLE

FreshSource: CelesTrak SupGP

Epoch: Sep 14, 2026, 21:07 UTC

1 47399C 21005BC  26257.88034722  .00049655  00000+0  15972-2 0  2577
2 47399  53.1592 236.2425 0001259  98.5817 227.5139 15.31668050    13

Track STARLINK-2121 in real time with AllMySat

Download on the App Store